Tracking 19242 objects as of 18-Sep-2018
HD Live streaming from Space Station
objects crossing your sky now

FENGYUN 1C DEB

Track FENGYUN 1C DEB now!
10-day predictions


NORAD ID: 30809
Int'l Code: 1999-025AUT
Perigee: 808.8 km
Apogee: 901.2 km
Inclination: 98.9 °
Period: 101.9 minutes
Semi major axis: 7226 km
RCS: 0.0182 m2 (small)
Launch date: May 10, 1999
Source: People's Republic of China (PRC)
Launch site: Taiyaun Space Center, China (TSC)

Note: This is SATELLITE DEBRIS
aabbcc
Your satellite tracking list
Your tracking list is empty




NASA's NSSDC Master Catalog

Two Line Element Set (TLE):
1 30809U 99025AUT 18260.70596339  .00000522  00000-0  29593-3 0  9994
2 30809  98.9320 322.5738 0063961 160.0132 200.3567 14.13363180596880
Source of the keplerian elements: AFSPC